Notices

What's New in latest Release from April 7th, 2021:

- Updated Glossary, including Speed of Maximum Gust, and Total Hourly Precipitation

- Updated national and regional climate services offices contacts and prices information

- Addition of station inventory lists for 1981-2010, 1971-2000, and 1961-1990 Normals.

If you haven't already, please take our survey and provide feedback about our website: https://eccc.sondage-survey.ca/f/LanguageSelection.aspx?s=442ca660-fcf1-47c0-95a9-59707d6fd709

Hourly Data Report for October 26, 2019

QUALICUM BEACH AIRPORT
BRITISH COLUMBIA
Current Station Operator: ECCC - MSC

49°20'14.000" N
124°23'38.000" W
58.20 m
1026562
71766
VOQ

Download Data

Hourly Data (October 2019)
Hourly Data Report for October 26, 2019
TIME
LST
Temp Definition
°C
Dew Point Definition
°C
Rel Hum Definition
%
Precip. Amount Definition
mm

Wind Dir Definition
10's deg

Wind Spd Definition
km/h
Visibility Definition
km
Stn Press Definition
kPa
Hmdx Definition


Wind Chill Definition


Weather Definition


00:00 8.4 1.9 64 0.0 30 16   101.92     LegendNANA
01:00 8.7 2.5 65 0.0 30 13   101.97     LegendNANA
02:00 7.9 2.4 68 0.0 28 8   101.99     LegendNANA
03:00 8.1 2.5 68 0.0 29 12   101.99     LegendNANA
04:00 6.7 2.2 73 0.0 28 8   101.99     LegendNANA
05:00 7.5 1.7 67 0.0 26 10   102.05     LegendNANA
06:00 7.9 3.6 74 0.0 28 11   102.14     LegendNANA
07:00 7.3 2.5 72 0.0 30 12   102.19     LegendNANA
08:00 7.8 2.3 68 0.0 28 7   102.29     LegendNANA
09:00 8.5 3.2 70 0.0 29 12   102.35     LegendNANA
10:00 9.8 4.5 69 0.0 32 24   102.40     LegendNANA
11:00 10.6 4.4 66 0.0 32 22   102.45     LegendNANA
12:00 11.7 5.2 64 0.0 31 23   102.47     LegendNANA
13:00 11.9 5.0 63 0.0 30 15   102.47     LegendNANA
14:00 12.4 4.5 58 0.0 31 20   102.43     LegendNANA
15:00 12.6 2.8 51 0.0 33 17   102.43     LegendNANA
16:00 12.3 3.1 53 0.0 32 16   102.49     LegendNANA
17:00 11.1 3.0 57 0.0 31 14   102.54     LegendNANA
18:00 8.8 2.3 64 0.0 28 7   102.60     LegendNANA
19:00 9.5 -0.1 51 0.0 29 10   102.64     LegendNANA
20:00 9.2 -0.5 51 0.0 31 14   102.66     LegendNANA
21:00 9.0 0.4 55 0.0 30 11   102.69     LegendNANA
22:00 7.3 -0.2 59 0.0 26 8   102.71     LegendNANA
23:00 7.7 -0.9 55 0.0 28 9   102.73     LegendNANA

Notes on Data Quality.

Legend

  • E = Estimated
  • M = Missing
  • NA = Not Available*
  • [empty] = Indicates an unobserved value
Date modified: